sat.trackr.live / text

‹ back to catalog

STARLINK-35083

NORAD 65390 · 2025-191M

PAYLOAD ACTIVE UNKNOWN

§ Identity

Operator
Country
US
Launch date
2025-08-30
Launch site
AFWTR
Launch vehicle
Mass (kg)
RCS (m²)

Purposes: comms

External: N2YO · Heavens-Above · Gunter

§ Orbital elements

Epoch: 2026-09-20T14:22:22.556352Z

Period
93.91 min
Inclination
97.2821°
Eccentricity
0.0002488
Mean motion
15.33444357 rev/d
Perigee alt
463.8 km
Apogee alt
467.2 km
Semi-major
6,843.7 km
B*
5.9826e-4
RAAN
129.6227°
Arg perigee
103.7616°
Mean anomaly
256.3904°
Rev number
5,965

§ Raw data

STARLINK-350831 65390U 25191M   26263.59887218  .00019289  00000+0  59826-3 0  99992 65390  97.2821 129.6227 0002488 103.7616 256.3904 15.33444357 59652

JSON: /api/v1/satellites/65390 · /tle

For live sub-satellite position, see the globe view (requires WebGL).

§ Visibility from observer

Set your observer location to see the next 7 days of passes ≥ 10°. The values pass through the URL so the page stays shareable.

No JS? Fill the form by hand. The geolocation button needs JavaScript.